Regional Weather Roundup
Issued by NWS

Home | Current Version | Previous Version | Graphics & Text | Print | Product List | Glossary On
Versions: 1 2 3 4 5 6 7 8 9 10 11 12 13 14 15 16 17 18 19 20 21 22 23 24 25 26 27 28 29 30 31 32 33 34 35 36 37 38 39 40 41 42 43 44 45 46 47 48 49 50
000
ASUS43 KLOT 200310
RWRIL

ILLINOIS REGIONAL WEATHER ROUNDUP
NATIONAL WEATHER SERVICE CHICAGO/ROMEOVILLE IL
1000 PM CDT TUE AUG 19 2014

NOTE: "FAIR" INDICATES FEW OR NO CLOUDS BELOW 12,000 FEET WITH NO
SIGNIFICANT WEATHER AND/OR OBSTRUCTIONS TO VISIBILITY.

* THESE STATIONS ARE NOT UNDER NWS QUALITY CONTROL. THEY ALSO MAY NOT
  REPORT WEATHER SUCH AS PRECIPITATION OR FOG.

ILZ001-002-007-009-015-016-024-200400-
NORTHWEST ILLINOIS

CITY           SKY/WX    TMP DP  RH WIND       PRES   REMARKS
MOLINE         CLEAR     71  64  78 W3        29.80R
STERLING*      CLEAR     70  63  78 NW3       29.79S
SAVANNA*       CLEAR     73  62  69 CALM      29.79R
$$

ILZ003-004-008-010-011-017-018-200400-
NORTH CENTRAL ILLINOIS

CITY           SKY/WX    TMP DP  RH WIND       PRES   REMARKS
ROCKFORD       CLEAR     70  62  76 W3        29.79R
FREEPORT*      CLEAR     70  66  85 W3        29.81R
ROCHELLE*      CLEAR     67  63  86 CALM      29.79R
DE KALB*       CLEAR     69  62  79 NW6       29.80R
PERU*          CLEAR     70  64  80 W8        29.80R
$$

ILZ005-006-012>014-019>023-200400-
NORTHEAST ILLINOIS

CITY           SKY/WX    TMP DP  RH WIND       PRES   REMARKS
CHICAGO-OHARE  PTCLDY    74  64  71 NW7       29.76R
CHICAGO-MIDWAY PTCLDY    80  66  62 W6        29.76R HX  82
AURORA         CLEAR     68  64  87 W3        29.78R
LANSING*       PTCLDY    73  68  83 SW6       29.77R
JOLIET*        CLEAR     71  66  83 CALM      29.79R
WAUKEGAN       CLEAR     67  65  93 CALM      29.75R
DUPAGE AIRPORT CLEAR     72  64  76 NW6       29.77R
KANKAKEE*      CLEAR     67  66  95 CALM      29.79S
WHEELING       CLEAR     73  69  87 CALM      29.77R
MORRIS*        CLEAR     71  67  88 W3        29.78R
ROMEOVILLE*    CLEAR     71  66  84 W5        29.78R
NORTHERLY ISL    N/A     77  65  66 W5          N/A
$$

LMZ740>746-200400-
SOUTHERN LAKE MICHIGAN

STATION/POSITION SKY/WX   TEMP    WIND        PRES    VSBY  WAVE
                          AIR SEA DIR/SP/G                  HT/PER
                          (F)     (DEG/KT/KT) (MB)    (MI)  (FT/S)
SOUTHERN BUOY              68 67   70/  2/  4 1007.2R         1/ 5
WAUKEGAN HARBOR            72        CALM       N/A
HARRISON CRIB              74     270/  7/  8   N/A
BURNHAM HARBOR             77     280/  4/ 11   N/A
CALUMET HARBOR             77     230/  7/  9 1006.6R
BURNS HARBOR               76     190/ 10/ 13   N/A
MICHIGAN CITY              75     170/ 12/ 16   N/A
MICHIGAN CITY 6N           73 70  190/ 12/ 14   N/A           1/ 3
ST. JOSEPH                 71 70  170/  6/  8   N/A           2/ 4
$$

ILZ025>027-034>036-040-047-049-050-058-095>099-200400-
WEST-CENTRAL ILLINOIS

CITY           SKY/WX    TMP DP  RH WIND       PRES   REMARKS
QUINCY         PTCLDY    75  71  87 S5        29.82R
GALESBURG*     CLEAR     68  64  88 CALM      29.82R
MACOMB*        CLEAR     69  68  97 SW5       29.84R
JACKSONVILLE*  CLEAR     74  73  93 S5        29.84R
PITTSFIELD*    CLEAR     73  70  89 CALM      29.84R
$$

ILZ028>032-037-038-041>044-048-051>054-059>061-200400-
CENTRAL ILLINOIS

CITY           SKY/WX    TMP DP  RH WIND       PRES   REMARKS
PONTIAC        CLEAR     72  72 100 SW5       29.80R
DECATUR        CLEAR     76  69  79 W5        29.83R
PEORIA         CLEAR     75  69  81 W3        29.81R
LACON*         CLEAR     72  67  86 CALM      29.79R
LINCOLN*       CLEAR     74  69  82 CALM      29.79R
SPRINGFIELD    CLEAR     72  70  93 CALM      29.82R
TAYLORVILLE    CLEAR     72  70  94 SW5       29.83R
$$

ILZ033-039-045-046-055>057-062-063-200400-
EAST-CENTRAL ILLINOIS

CITY           SKY/WX    TMP DP  RH WIND       PRES   REMARKS
CHAMPAIGN      CLEAR     71  69  93 W5        29.82R
DANVILLE*      RAIN      69  68  94 CALM      29.79S
RANTOUL*       CLEAR     74  67  77 W7        29.82S
MATTOON        CLEAR     75  70  84 W5        29.82R
PARIS*         PTCLDY    73  72  95 W5        29.83R THUNDER
$$

ILZ079-100>102-200400-
SOUTHWEST ILLINOIS

CITY           SKY/WX    TMP DP  RH WIND       PRES   REMARKS
ALTON          CLEAR     73  73 100 CALM      29.82S
BELLEVILLE     CLEAR     75  75  99 CALM      29.82R FOG
CAHOKIA*       CLEAR     77  71  82 S3        29.82R
SPARTA*        CLEAR     77  72  85 SW7       29.84R
$$

ILZ064>066-069>071-074>076-080>082-084>086-088>090-092>094-200400-
SOUTH-CENTRAL ILLINOIS

CITY           SKY/WX    TMP DP  RH WIND       PRES   REMARKS
CARBONDALE     CLEAR     72  68  87 S5        29.84R
CAIRO*         CLEAR     73  68  85 CALM      29.85S
MARION         CLEAR     73  68  83 CALM      29.85R
MT. VERNON     CLEAR     73  66  78 SW7       29.84R
CENTRALIA*     CLEAR     73  70  89 SW5       29.83R
SALEM*         CLEAR     77  75  93 CALM      29.83R
$$

ILZ067-068-072-073-078-083-087-091-200400-
SOUTHEAST ILLINOIS

CITY           SKY/WX    TMP DP  RH WIND       PRES   REMARKS
LAWRENCEVILLE  CLEAR     75  74  96 S6        29.83R FOG
FLORA*         CLEAR     73  72  94 SW5       29.83R
FAIRFIELD*     CLEAR     77  75  94 MISG      29.83S
HARRISBURG*    CLEAR     70  70  98 CALM      29.86R
ROBINSON*      CLEAR     73  72  96 S3        29.83R FOG
CARMI*         CLEAR     73  72  94 SW3       29.84R
$$

ABBREVIATIONS USED IN REMARKS
   TC - TEMPERATURE IN CELSIUS
  WCI - WIND CHILL INDEX
   HX - HEAT INDEX
  VSB - VISIBILITY
$$




USA.gov is the U.S. government's official web portal to all federal, state and local government web resources and services.